[[{"header":{"parameterUnit":"m.s-1","parameterCategory":1,"la1":30.2991,"la2":30.254,"lo1":-89.0895,"lo2":-89.0444,"dy":0.0017,"dx":0.0017,"nx":28,"ny":28,"refTime":"2023-11-03T03:00:00:Z","depth":0,"parameterNumber":2,"parameterNumberName":"U-component_of_WINDS"},"data":[0,0,0,0,0,0,0,0,0,0,0,0,0,0,0,0,0,0,0,0,0,0,0,0,0,0,0,0,0,0,0,0,0,0,0,0,0,0,0,0,0,0,0,0,0,0,0,0,0,0,0,0,0,0,0,0,0,0,-0.7985,-0.7985,0,-0.7973,-0.7973,-0.7973,-0.7952,-0.7951,-0.7951,-0.795,-0.7937,-0.7937,-0.7937,0,0,0,0,0,0,0,0,0,0,0,0,0,-0.799,-0.7991,-0.7985,-0.7985,-0.7985,-0.7973,-0.7973,-0.7973,-0.7952,-0.7951,-0.7951,-0.795,-0.7937,-0.7937,-0.7937,0,0,0,0,0,0,0,0,0,0,0,0,0,-0.7984,-0.7991,-0.7986,-0.7973,-0.7972,-0.7973,-0.7973,-0.7973,-0.7952,-0.7951,-0.7951,-0.795,-0.7937,-0.7937,-0.7937,-0.795,0,0,-0.7938,-0.7938,0,0,0,0,0,0,0,0,-0.7985,-0.7984,-0.7975,-0.7974,-0.7973,-0.7963,-0.797,-0.7965,-0.7952,-0.7959,-0.795,-0.795,-0.7947,-0.7946,-0.7945,-0.7949,-0.7949,-0.7938,-0.7938,-0.7938,-0.7938,0,0,0,0,0,0,0,-0.7985,-0.7985,-0.7981,-0.7975,-0.7974,-0.7968,-0.7967,-0.7969,-0.7956,-0.7959,-0.7957,-0.7956,-0.7946,-0.7945,-0.7944,-0.7948,-0.7938,-0.7938,-0.7938,-0.7938,-0.7964,-0.7965,0,0,0,0,0,0,-0.7987,-0.7985,-0.7981,-0.798,-0.7977,-0.7969,-0.7967,-0.7967,-0.7956,-0.7954,-0.7957,-0.7955,-0.7945,-0.7944,-0.7944,-0.7959,-0.7938,-0.7938,-0.7938,-0.7964,-0.7965,-0.7965,0,0,0,0,0,0,-0.7988,-0.7987,-0.7982,-0.7982,-0.7981,-0.7969,-0.7969,-0.7967,-0.7966,-0.7955,-0.7952,-0.7958,-0.7945,-0.7944,-0.7949,-0.7958,-0.7938,-0.7938,-0.7963,-0.7964,-0.7965,-0.7988,0,0,0,0,0,0,-0.7988,-0.7987,-0.7992,-0.7983,-0.7981,-0.7987,-0.797,-0.7967,-0.7966,-0.7964,-0.7955,-0.7953,-0.7944,-0.7949,-0.7949,-0.7958,-0.7938,-0.7962,-0.7963,-0.7965,-0.7987,-0.799,-0.7993,0,0,0,0,0,-0.7988,-0.7998,-0.7992,-0.7992,-0.7986,-0.7987,-0.7987,-0.7976,-0.7967,-0.7972,-0.7965,-0.7954,-0.7957,-0.795,-0.795,-0.7958,-0.7961,-0.7963,-0.7965,-0.7985,-0.7989,-0.7993,0,0,0,0,0,0,-0.8008,-0.7997,-0.799,-0.7997,-0.7994,-0.7984,-0.7989,-0.798,-0.7978,-0.7976,-0.7963,-0.7961,-0.7969,-0.7964,-0.7956,-0.7971,-0.7958,-0.7959,-0.7974,-0.7977,-0.798,-0.7982,-0.7938,0,0,0,0,0,-0.8014,-0.8015,-0.8005,-0.8013,-0.8011,-0.8001,-0.8001,-0.7993,-0.7988,-0.7986,-0.798,-0.7976,-0.7976,-0.7976,-0.7976,-0.7986,-0.7985,-0.7992,-0.7995,-0.7998,-0.8,-0.8006,-0.801,-0.797,-0.797,-0.797,0,0,-0.8024,-0.8018,-0.802,-0.8017,-0.8013,-0.8016,-0.7999,-0.8002,-0.8004,-0.7987,-0.7992,-0.7987,-0.7981,-0.799,-0.7993,-0.7986,-0.801,-0.8,-0.8002,-0.8002,-0.8008,-0.8012,-0.8015,-0.7971,-0.7971,-0.7971,0,0,-0.8046,-0.8041,-0.8048,-0.8045,-0.8039,-0.8033,-0.8034,-0.8026,-0.8023,-0.8027,-0.8015,-0.8017,-0.8017,-0.8015,-0.8013,-0.8036,-0.8026,-0.8036,-0.8052,-0.8059,-0.8062,-0.8065,-0.8074,-0.8078,-0.8038,-0.8038,-0.8038,0,-0.806,-0.8063,-0.8052,-0.8056,-0.8056,-0.8041,-0.8048,-0.8046,-0.804,-0.804,-0.8033,-0.8034,-0.8029,-0.8038,-0.8044,-0.8043,-0.8045,-0.8037,-0.8063,-0.8065,-0.8068,-0.8077,-0.808,-0.8039,-0.8039,-0.8039,-0.8039,0,-0.8082,-0.8084,-0.809,-0.8087,-0.8087,-0.8092,-0.8082,-0.8084,-0.8077,-0.8071,-0.8077,-0.8071,-0.807,-0.8071,-0.8063,-0.8079,-0.8075,-0.8065,-0.8052,-0.8073,-0.8081,-0.8084,-0.8041,-0.804,-0.804,-0.804,0,0,-0.8114,-0.8106,-0.8108,-0.8107,-0.8101,-0.8103,-0.8109,-0.8108,-0.811,-0.8108,-0.8113,-0.8114,-0.8106,-0.8104,-0.8096,-0.8102,-0.8123,-0.8092,-0.8092,-0.8099,-0.8141,-0.8149,-0.8153,-0.8116,-0.8117,-0.8117,-0.8142,0,-0.8135,-0.8144,-0.8135,-0.8146,-0.8149,-0.8136,-0.8141,-0.8138,-0.8134,-0.8136,-0.813,-0.8132,-0.812,-0.8119,-0.8125,-0.8119,-0.8131,-0.8117,-0.8121,-0.8122,-0.8124,-0.8157,-0.8165,-0.8188,-0.8145,-0.8145,-0.8146,0,-0.816,-0.816,-0.8171,-0.8167,-0.8168,-0.8172,-0.8172,-0.8174,-0.8171,-0.8167,-0.8167,-0.8158,-0.8163,-0.815,-0.8159,-0.815,-0.8151,-0.8149,-0.8149,-0.815,-0.8135,-0.8159,-0.8195,-0.8199,-0.815,-0.815,-0.815,0,-0.8184,-0.8186,-0.8194,-0.8194,-0.8188,-0.8192,-0.8189,-0.8186,-0.8187,-0.8187,-0.8188,-0.8188,-0.8188,-0.8189,-0.8181,-0.8172,-0.8191,-0.8177,-0.8189,-0.8189,-0.8193,-0.8193,-0.8231,-0.8193,-0.8193,-0.8193,-0.8193,0,-0.8208,-0.8216,-0.8205,-0.821,-0.8219,-0.8209,-0.8219,-0.8215,-0.8212,-0.8217,-0.8205,-0.8209,-0.8198,-0.8201,-0.8195,-0.8204,-0.8204,-0.8201,-0.82,-0.8203,-0.8203,-0.8204,-0.8202,-0.8194,-0.8193,-0.8193,-0.8193,0,-0.8237,-0.8229,-0.8237,-0.8232,-0.8231,-0.8238,-0.8233,-0.8238,-0.8233,-0.8239,-0.824,-0.8231,-0.8235,-0.8227,-0.8229,-0.8225,-0.8238,-0.8233,-0.8239,-0.8238,-0.8251,-0.8251,-0.8292,-0.8297,-0.8254,-0.8255,-0.8255,0,-0.8253,-0.8259,-0.8255,-0.8257,-0.8256,-0.826,-0.8261,-0.8252,-0.8254,-0.8252,-0.8257,-0.826,-0.8262,-0.8269,-0.8263,-0.8265,-0.8261,-0.8276,-0.8261,-0.8265,-0.8263,-0.8263,-0.8264,-0.8279,-0.8279,-0.8279,-0.828,0,-0.8283,-0.828,-0.8282,-0.8284,-0.8287,-0.8288,-0.8288,-0.829,-0.8281,-0.8284,-0.8288,-0.8289,-0.8292,-0.8296,-0.8297,-0.8295,-0.8287,-0.8284,-0.8288,-0.8291,-0.8295,-0.8295,-0.8248,-0.8284,-0.8283,-0.8283,-0.8283,-0.8283,-0.8306,-0.8312,-0.8311,-0.8314,-0.8314,-0.8315,-0.8319,-0.8316,-0.8319,-0.8321,-0.8316,-0.8322,-0.832,-0.8321,-0.832,-0.8325,-0.8319,-0.8323,-0.8324,-0.8325,-0.8328,-0.8294,-0.8325,-0.8325,-0.8325,-0.8325,-0.8325,0,-0.8337,-0.8336,-0.834,-0.8341,-0.8344,-0.8336,-0.8337,-0.834,-0.8345,-0.8345,-0.8348,-0.8353,-0.8357,-0.8353,-0.8356,-0.8361,-0.8357,-0.8362,-0.8362,-0.8362,-0.8333,-0.8331,-0.8365,-0.8365,-0.8365,-0.8365,-0.8365,-0.8365,-0.8353,-0.8363,-0.836,-0.837,-0.8368,-0.8374,-0.8376,-0.8377,-0.8377,-0.8384,-0.8387,-0.8384,-0.8383,-0.8386,-0.839,-0.8389,-0.8391,-0.8398,-0.8395,-0.8368,-0.8364,-0.836,-0.8358,-0.8398,-0.8398,-0.8424,-0.8424,-0.8424]},{"header":{"parameterUnit":"m.s-1","parameterCategory":1,"la1":30.2991,"la2":30.254,"lo1":-89.0895,"lo2":-89.0444,"dy":0.0017,"dx":0.0017,"nx":28,"ny":28,"refTime":"2023-11-03T03:00:00:Z","depth":0,"parameterNumber":3,"parameterNumberName":"V-component_of_WINDS"},"data":[0,0,0,0,0,0,0,0,0,0,0,0,0,0,0,0,0,0,0,0,0,0,0,0,0,0,0,0,0,0,0,0,0,0,0,0,0,0,0,0,0,0,0,0,0,0,0,0,0,0,0,0,0,0,0,0,0,0,-0.2866,-0.2867,0,-0.2908,-0.2909,-0.2909,-0.286,-0.2859,-0.2857,-0.2855,-0.2901,-0.2904,-0.2907,0,0,0,0,0,0,0,0,0,0,0,0,0,-0.2745,-0.2747,-0.2866,-0.2867,-0.2867,-0.2908,-0.2909,-0.291,-0.2861,-0.2859,-0.2856,-0.2854,-0.29,-0.2903,-0.2907,0,0,0,0,0,0,0,0,0,0,0,0,0,-0.2793,-0.2748,-0.2866,-0.2848,-0.2846,-0.2908,-0.2909,-0.291,-0.2861,-0.2858,-0.2856,-0.2853,-0.2899,-0.2903,-0.2907,-0.299,0,0,-0.2921,-0.2923,0,0,0,0,0,0,0,0,-0.2791,-0.2798,-0.285,-0.2849,-0.2848,-0.2876,-0.2883,-0.2937,-0.2862,-0.2856,-0.2855,-0.2852,-0.2895,-0.29,-0.2914,-0.2992,-0.2994,-0.2921,-0.2924,-0.2926,-0.2927,0,0,0,0,0,0,0,-0.2787,-0.2796,-0.2883,-0.2851,-0.2849,-0.2838,-0.2842,-0.2893,-0.2891,-0.2856,-0.2853,-0.2858,-0.2894,-0.291,-0.2914,-0.2995,-0.2921,-0.2925,-0.2928,-0.2929,-0.3144,-0.3147,0,0,0,0,0,0,-0.2786,-0.2793,-0.2882,-0.2884,-0.2812,-0.2842,-0.2847,-0.287,-0.289,-0.289,-0.286,-0.2856,-0.2903,-0.2909,-0.2916,-0.3016,-0.2926,-0.293,-0.2932,-0.3141,-0.3145,-0.3148,0,0,0,0,0,0,-0.2783,-0.2794,-0.288,-0.2838,-0.2848,-0.2847,-0.2874,-0.2872,-0.2888,-0.2893,-0.2893,-0.2877,-0.2901,-0.291,-0.2972,-0.3017,-0.2932,-0.2936,-0.3138,-0.3142,-0.3147,-0.3216,0,0,0,0,0,0,-0.278,-0.2794,-0.2825,-0.2839,-0.285,-0.2935,-0.2877,-0.2875,-0.2895,-0.289,-0.2908,-0.2909,-0.29,-0.2966,-0.2976,-0.3021,-0.2939,-0.3134,-0.314,-0.3145,-0.3209,-0.3222,-0.3233,0,0,0,0,0,-0.2776,-0.2843,-0.2827,-0.2838,-0.2889,-0.2938,-0.2944,-0.2932,-0.2899,-0.2931,-0.2934,-0.2908,-0.3009,-0.2973,-0.2984,-0.3031,-0.3131,-0.3138,-0.3145,-0.3204,-0.3219,-0.3232,0,0,0,0,0,0,-0.2835,-0.2844,-0.2827,-0.29,-0.2918,-0.2929,-0.2969,-0.2949,-0.2978,-0.2971,-0.2955,-0.296,-0.3027,-0.3034,-0.2993,-0.3112,-0.3065,-0.3074,-0.3106,-0.3121,-0.3132,-0.3131,-0.2943,0,0,0,0,0,-0.2856,-0.2894,-0.29,-0.2964,-0.2974,-0.297,-0.2991,-0.298,-0.2999,-0.3007,-0.3014,-0.3035,-0.3071,-0.3095,-0.3129,-0.3209,-0.3213,-0.3246,-0.3258,-0.3268,-0.3277,-0.3322,-0.3338,-0.3171,-0.3171,-0.3171,0,0,-0.2901,-0.2911,-0.2936,-0.2976,-0.299,-0.3031,-0.2977,-0.3023,-0.3053,-0.3014,-0.3074,-0.308,-0.3101,-0.3173,-0.3205,-0.3182,-0.3324,-0.3276,-0.3284,-0.3289,-0.3331,-0.3347,-0.3361,-0.3176,-0.3175,-0.3174,0,0,-0.3005,-0.3015,-0.307,-0.3084,-0.3104,-0.3101,-0.3114,-0.3128,-0.3131,-0.319,-0.3162,-0.3197,-0.326,-0.3277,-0.3293,-0.3402,-0.338,-0.3413,-0.3476,-0.3519,-0.3533,-0.3544,-0.3586,-0.3601,-0.3422,-0.3422,-0.3422,0,-0.3059,-0.3119,-0.3101,-0.3149,-0.3168,-0.3132,-0.3189,-0.3203,-0.3234,-0.3249,-0.3221,-0.3299,-0.331,-0.3387,-0.3413,-0.3427,-0.3443,-0.3413,-0.3532,-0.3543,-0.3554,-0.3594,-0.3609,-0.3426,-0.3426,-0.3425,-0.3425,0,-0.3185,-0.3227,-0.3269,-0.33,-0.3323,-0.3375,-0.3366,-0.3392,-0.3378,-0.3377,-0.3439,-0.3451,-0.3487,-0.3504,-0.349,-0.3579,-0.3564,-0.3534,-0.3487,-0.3574,-0.3612,-0.3626,-0.3432,-0.343,-0.3429,-0.3428,0,0,-0.3331,-0.3349,-0.3366,-0.3379,-0.3398,-0.3431,-0.348,-0.3515,-0.3539,-0.356,-0.3603,-0.3656,-0.3629,-0.3648,-0.3635,-0.3673,-0.3762,-0.3639,-0.364,-0.3665,-0.3863,-0.3888,-0.3906,-0.3745,-0.3748,-0.375,-0.3862,0,-0.3438,-0.3525,-0.351,-0.3595,-0.3635,-0.36,-0.3644,-0.366,-0.3661,-0.3695,-0.3695,-0.3734,-0.3693,-0.3705,-0.374,-0.3744,-0.3802,-0.3735,-0.3788,-0.379,-0.3788,-0.3925,-0.3951,-0.4057,-0.3876,-0.3879,-0.388,0,-0.3574,-0.3601,-0.369,-0.3703,-0.3719,-0.3759,-0.3789,-0.3821,-0.384,-0.3837,-0.3858,-0.3839,-0.389,-0.3838,-0.3909,-0.3864,-0.3884,-0.3889,-0.3892,-0.39,-0.3844,-0.394,-0.4089,-0.4107,-0.3902,-0.3901,-0.3899,0,-0.3676,-0.3733,-0.3794,-0.3806,-0.3822,-0.3851,-0.3859,-0.3874,-0.3896,-0.3923,-0.3937,-0.3969,-0.3988,-0.4013,-0.4004,-0.3966,-0.4078,-0.4024,-0.4079,-0.408,-0.4108,-0.4107,-0.4267,-0.4114,-0.4114,-0.4114,-0.4114,0,-0.3799,-0.3856,-0.384,-0.3879,-0.3941,-0.3922,-0.3985,-0.3989,-0.4002,-0.4041,-0.4012,-0.4049,-0.4032,-0.4068,-0.406,-0.4122,-0.413,-0.4131,-0.4129,-0.4136,-0.4137,-0.4152,-0.4146,-0.4118,-0.4117,-0.4116,-0.4116,0,-0.3926,-0.3917,-0.3982,-0.399,-0.3994,-0.404,-0.4048,-0.4084,-0.4081,-0.4131,-0.4141,-0.4137,-0.4178,-0.417,-0.4215,-0.4209,-0.4288,-0.4275,-0.4282,-0.4281,-0.4337,-0.4334,-0.4516,-0.4541,-0.4369,-0.437,-0.4372,0,-0.4007,-0.405,-0.4063,-0.4086,-0.4096,-0.4135,-0.4156,-0.4139,-0.4163,-0.4187,-0.4221,-0.4258,-0.4289,-0.4356,-0.4358,-0.4392,-0.4382,-0.4443,-0.4388,-0.4394,-0.4388,-0.4387,-0.4392,-0.4456,-0.4458,-0.446,-0.4461,0,-0.4153,-0.4146,-0.4179,-0.421,-0.4237,-0.4261,-0.4282,-0.4303,-0.4287,-0.4316,-0.4357,-0.438,-0.4426,-0.4465,-0.4497,-0.4505,-0.4482,-0.4478,-0.4493,-0.4503,-0.4507,-0.4509,-0.4317,-0.4475,-0.4474,-0.4473,-0.4472,-0.4471,-0.4262,-0.4299,-0.4314,-0.4352,-0.4365,-0.4385,-0.442,-0.4421,-0.4455,-0.449,-0.4477,-0.4525,-0.4542,-0.4582,-0.4594,-0.4632,-0.461,-0.4631,-0.4637,-0.4643,-0.4652,-0.4497,-0.4637,-0.4637,-0.4637,-0.4636,-0.4636,0,-0.441,-0.4417,-0.4452,-0.4482,-0.4511,-0.4483,-0.4505,-0.4532,-0.4575,-0.4592,-0.4621,-0.4669,-0.4707,-0.471,-0.4746,-0.4776,-0.4766,-0.4786,-0.4786,-0.4789,-0.4669,-0.4654,-0.4793,-0.4793,-0.4793,-0.4793,-0.4793,-0.4793,-0.4491,-0.4553,-0.4548,-0.4616,-0.4623,-0.467,-0.4685,-0.4704,-0.4717,-0.4772,-0.4803,-0.4804,-0.4816,-0.4852,-0.4886,-0.4886,-0.4902,-0.4927,-0.4924,-0.4812,-0.4797,-0.4782,-0.4768,-0.493,-0.493,-0.5041,-0.5042,-0.5043]}]]